Tracking 35274 objects as of 11-Sep-2026
HD Live streaming from Space Station
objects crossing your sky now

ONEWEB-0435

Track ONEWEB-0435 now!
10-day predictions
ONEWEB-0435 is classified as:


NORAD ID: 51632
Int'l Code: 2022-012L
Launch date: February 10, 2022
Source: United Kingdom (UK)
Launch site: FRENCH GUIANA (FRGUI)
Your satellite tracking list
Your tracking list is empty




NASA's NSSDC Master Catalog

Two Line Element Set (TLE):
1 51632U 22012L   26253.40987521  .00000526  00000-0  14708-2 0  9993
2 51632  87.8888  19.3041 0001833  88.3518 271.7819 13.10375843220477
Source of the keplerian elements: AFSPC